TimeCST,TemperatureF,Dew PointF,Humidity,Sea Level PressureIn,VisibilityMPH,Wind Direction,Wind SpeedMPH,Gust SpeedMPH,PrecipitationIn,Events,Conditions,WindDirDegrees,DateUTC
12:54 AM,34.0,28.0,79,30.42,10.0,NNW,3.5,-,N/A,,Clear,340,2013-01-04 06:54:00
1:54 AM,33.1,28.0,82,30.41,10.0,North,3.5,-,N/A,,Clear,10,2013-01-04 07:54:00
2:54 AM,30.9,28.0,89,30.41,10.0,Calm,Calm,-,N/A,,Clear,0,2013-01-04 08:54:00
3:54 AM,30.9,28.0,89,30.41,10.0,Calm,Calm,-,N/A,,Clear,0,2013-01-04 09:54:00
4:54 AM,30.9,28.0,89,30.41,10.0,NNW,4.6,-,N/A,,Clear,340,2013-01-04 10:54:00
5:54 AM,32.0,28.0,85,30.42,10.0,Calm,Calm,-,N/A,,Clear,0,2013-01-04 11:54:00
6:54 AM,30.9,27.0,85,30.44,10.0,Calm,Calm,-,N/A,,Clear,0,2013-01-04 12:54:00
7:54 AM,35.1,28.9,78,30.46,10.0,Calm,Calm,-,N/A,,Overcast,0,2013-01-04 13:54:00
8:54 AM,39.0,28.9,67,30.48,10.0,NNE,4.6,-,N/A,,Mostly Cloudy,20,2013-01-04 14:54:00
9:54 AM,44.1,26.1,49,30.49,10.0,Variable,3.5,-,N/A,,Partly Cloudy,0,2013-01-04 15:54:00
10:54 AM,48.0,24.1,39,30.48,10.0,NE,4.6,-,N/A,,Partly Cloudy,50,2013-01-04 16:54:00
11:54 AM,48.9,23.0,36,30.45,10.0,Variable,3.5,-,N/A,,Clear,0,2013-01-04 17:54:00
12:54 PM,51.1,25.0,36,30.41,10.0,North,5.8,-,N/A,,Partly Cloudy,10,2013-01-04 18:54:00
1:54 PM,51.1,27.0,39,30.39,10.0,North,8.1,-,N/A,,Scattered Clouds,10,2013-01-04 19:54:00
2:54 PM,51.1,27.0,39,30.40,10.0,NNW,9.2,-,N/A,,Partly Cloudy,330,2013-01-04 20:54:00
3:54 PM,51.1,27.0,39,30.40,10.0,NNE,8.1,-,N/A,,Clear,20,2013-01-04 21:54:00
4:54 PM,48.0,30.9,52,30.40,10.0,North,6.9,-,N/A,,Scattered Clouds,360,2013-01-04 22:54:00
5:54 PM,46.0,30.9,56,30.41,10.0,North,5.8,-,N/A,,Overcast,350,2013-01-04 23:54:00
6:54 PM,41.0,30.9,67,30.42,10.0,Calm,Calm,-,N/A,,Scattered Clouds,0,2013-01-05 00:54:00
7:54 PM,41.0,33.1,73,30.42,10.0,Calm,Calm,-,N/A,,Overcast,0,2013-01-05 01:54:00
8:54 PM,44.1,32.0,63,30.42,10.0,NNW,3.5,-,N/A,,Overcast,340,2013-01-05 02:54:00
9:54 PM,42.1,32.0,67,30.41,10.0,Calm,Calm,-,N/A,,Mostly Cloudy,0,2013-01-05 03:54:00
10:54 PM,39.0,33.1,79,30.40,10.0,Calm,Calm,-,N/A,,Partly Cloudy,0,2013-01-05 04:54:00
11:54 PM,36.0,32.0,86,30.38,10.0,Calm,Calm,-,N/A,,Scattered Clouds,0,2013-01-05 05:54:00